Location: Rooftop Observatory
(39.0308°N, 87.1711°W)
Time: 08:43:12
(UTC-05:00)

Terra - Visible Passes

Search period start: 29 March 2015 00:00
Search period end: 08 April 2015 00:00
Orbit: 701 x 703 km, 98.2° (Epoch: 29 March)

Date Brightness Start Highest point End Pass type
(mag) Time Alt. Az. Time Alt. Az. Time Alt. Az.
29 Mar 4.3 21:54:20 12° NNE 21:54:20 12° NNE 21:54:50 10° NNE visible
30 Mar 4.4 22:37:31 15° N 22:37:31 15° N 22:38:22 10° N visible
31 Mar 4.3 21:41:47 11° NNE 21:41:47 11° NNE 21:42:08 10° NNE visible
31 Mar 4.8 23:20:39 12° NNW 23:20:39 12° NNW 23:21:04 10° NNW visible
01 Apr 4.2 22:24:57 16° N 22:24:57 16° N 22:26:02 10° N visible
02 Apr 4.5 23:08:07 15° NNW 23:08:07 15° NNW 23:08:57 10° NNW visible
03 Apr 4.1 22:12:23 17° NNE 22:12:23 17° NNE 22:13:36 10° N visible
04 Apr 4.3 22:55:33 18° NNW 22:55:33 18° NNW 22:56:45 10° NNW visible
05 Apr 4.0 21:59:50 16° NNE 21:59:50 16° NNE 22:01:06 10° NNE visible
05 Apr 4.8 23:38:41 12° NW 23:38:41 12° NW 23:39:05 10° NNW visible
06 Apr 4.0 22:42:59 20° N 22:42:59 20° N 22:44:30 10° N visible
07 Apr 4.0 21:47:15 15° NNE 21:47:15 15° NNE 21:48:29 10° NNE visible
07 Apr 4.5 23:26:08 15° NNW 23:26:08 15° NNW 23:27:04 10° NNW visible
